Weather History for Litchfield, MN

Change the Weather History Date:

Sunday, April 28, 2013

  Actual Average Record
Temperature  
Mean Temperature 65 °F -  
Max Temperature 80 °F 63 °F 91 °F (2004)
Min Temperature 50 °F 39 °F 24 °F (2008)
Growing Degree Days 15 (Base 50)    
Moisture  
Dew Point 46 °F    
Average Humidity 57    
Maximum Humidity 87    
Minimum Humidity 26    
Precipitation  
Precipitation 0.00 in - - ()
Sea Level Pressure  
Sea Level Pressure 29.75 in    
Wind  
Wind Speed 6 mph (SSW)    
Max Wind Speed 22 mph    
Max Gust Speed 29 mph    
Visibility 10 miles    
Events Thunderstorm    
Averages and records for this station are not official NWS values.
T = Trace of Precipitation, MM = Missing Value Source: NWS Daily Summary

Daily Weather History Graph

Daily Weather History Graph

Search for Another Location

Airport:

Trip Planner

Search our weather history database for the weather conditions in past years. The results will help you decide how hot, cold, wet, or windy it might be!

Date:

Astronomy

Apr. 28, 2013 Rise Set
Actual Time 6:11 AM CDT 8:20 PM CDT
Civil Twilight 5:39 AM CDT 8:52 PM CDT
Nautical Twilight 4:59 AM CDT 9:32 PM CDT
Astronomical Twilight 4:15 AM CDT 10:16 PM CDT
Moon 11:56 PM CDT (4/28) 8:23 AM CDT (4/28)
Length of Visible Light 15h 13m
Length of Day
14h 09m
Waning Gibbous, 88% of the Moon is Illuminated
Apr 28
Waning Gibbous
May 2
Last Quarter
May 9
New
May 17
First Quarter
May 24
Full

Hourly Weather History & Observations

Time (CDT) Temp. Dew Point Humidity Pressure Visibility Wind Dir Wind Speed Gust Speed Precip Events Conditions
12:13 AM 57.2 °F 44.6 °F 63% 29.85 in 10.0 mi South 4.6 mph - N/A   Clear
12:32 AM 55.4 °F 44.6 °F 67% 29.85 in 10.0 mi SSE 4.6 mph - N/A   Clear
12:53 AM 55.4 °F 44.6 °F 67% 29.86 in 10.0 mi South 4.6 mph - N/A   Clear
1:13 AM 55.4 °F 44.6 °F 67% 29.86 in 10.0 mi South 5.8 mph - N/A   Clear
1:32 AM 55.4 °F 44.6 °F 67% 29.86 in 10.0 mi SSE 3.5 mph - N/A   Clear
1:53 AM 53.6 °F 44.6 °F 72% 29.85 in 10.0 mi South 4.6 mph - N/A   Clear
2:13 AM 53.6 °F 44.6 °F 72% 29.84 in 10.0 mi South 4.6 mph - N/A   Clear
2:32 AM 53.6 °F 46.4 °F 77% 29.84 in 10.0 mi SSE 4.6 mph - N/A   Clear
2:53 AM 53.6 °F 46.4 °F 77% 29.84 in 10.0 mi South 5.8 mph - N/A   Clear
3:13 AM 51.8 °F 46.4 °F 82% 29.84 in 10.0 mi South 3.5 mph - N/A   Clear
3:32 AM 51.8 °F 46.4 °F 82% 29.83 in 10.0 mi South 4.6 mph - N/A   Clear
3:53 AM 51.8 °F 46.4 °F 82% 29.83 in 10.0 mi South 4.6 mph - N/A   Clear
4:13 AM 51.8 °F 46.4 °F 82% 29.82 in 10.0 mi South 3.5 mph - N/A   Clear
4:32 AM 51.8 °F 46.4 °F 82% 29.81 in 10.0 mi SSE 3.5 mph - N/A   Clear
4:53 AM 51.8 °F 46.4 °F 82% 29.81 in 10.0 mi South 5.8 mph - N/A   Clear
5:13 AM 51.8 °F 46.4 °F 82% 29.81 in 10.0 mi South 4.6 mph - N/A   Clear
5:32 AM 50.0 °F 46.4 °F 87% 29.81 in 10.0 mi SSE 6.9 mph - N/A   Clear
6:13 AM 50.0 °F 46.4 °F 87% 29.78 in 10.0 mi SSE 6.9 mph - N/A   Clear
6:32 AM 50.0 °F 46.4 °F 87% 29.77 in 10.0 mi SSE 9.2 mph - N/A   Clear
6:53 AM 51.8 °F 46.4 °F 82% 29.78 in 10.0 mi South 6.9 mph - N/A   Clear
7:13 AM 53.6 °F 46.4 °F 77% 29.77 in 10.0 mi SSE 6.9 mph - N/A   Clear
7:33 AM 55.4 °F 48.2 °F 77% 29.77 in 10.0 mi South 5.8 mph - N/A   Clear
8:12 AM 55.4 °F 48.2 °F 77% 29.76 in 10.0 mi SSE 5.8 mph - N/A   Clear
8:33 AM 57.2 °F 48.2 °F 72% 29.76 in 10.0 mi South 4.6 mph - N/A   Clear
8:53 AM 59.0 °F 48.2 °F 67% 29.75 in 10.0 mi South 8.1 mph - N/A   Clear
9:12 AM 60.8 °F 48.2 °F 63% 29.74 in 10.0 mi South 5.8 mph - N/A   Clear
9:33 AM 62.6 °F 50.0 °F 63% 29.74 in 10.0 mi South 4.6 mph - N/A   Clear
9:53 AM 62.6 °F 50.0 °F 63% 29.74 in 10.0 mi South 4.6 mph - N/A   Clear
10:12 AM 64.4 °F 50.0 °F 59% 29.74 in 10.0 mi South 4.6 mph - N/A   Clear
10:33 AM 66.2 °F 51.8 °F 60% 29.74 in 10.0 mi South 4.6 mph - N/A   Clear
10:53 AM 66.2 °F 50.0 °F 56% 29.73 in 10.0 mi SSE 6.9 mph - N/A   Clear
11:12 AM 69.8 °F 48.2 °F 46% 29.72 in 10.0 mi South 5.8 mph - N/A   Clear
11:33 AM 73.4 °F 48.2 °F 41% 29.72 in 10.0 mi South 5.8 mph - N/A   Clear
11:53 AM 73.4 °F 46.4 °F 38% 29.71 in 10.0 mi South 5.8 mph - N/A   Clear
12:12 PM 73.4 °F 46.4 °F 38% 29.71 in 10.0 mi South 4.6 mph - N/A   Clear
12:33 PM 73.4 °F 46.4 °F 38% 29.71 in 10.0 mi SSE 4.6 mph - N/A   Clear
12:53 PM 75.2 °F 46.4 °F 36% 29.70 in 10.0 mi SSE 6.9 mph - N/A   Clear
1:12 PM 77.0 °F 46.4 °F 34% 29.70 in 10.0 mi SSE 8.1 mph - N/A   Clear
1:33 PM 78.8 °F 46.4 °F 32% 29.69 in 10.0 mi SSE 6.9 mph - N/A   Clear
1:53 PM 78.8 °F 46.4 °F 32% 29.69 in 10.0 mi Calm Calm - N/A   Clear
2:12 PM 78.8 °F 42.8 °F 28% 29.69 in 10.0 mi SSW 4.6 mph - N/A   Clear
2:33 PM 80.6 °F 42.8 °F 26% 29.68 in 10.0 mi SSW 4.6 mph - N/A   Clear
2:53 PM 80.6 °F 42.8 °F 26% 29.68 in 10.0 mi SSW 8.1 mph - N/A   Clear
3:13 PM 80.6 °F 42.8 °F 26% 29.68 in 10.0 mi WSW 6.9 mph - N/A   Clear
3:33 PM 78.8 °F 42.8 °F 28% 29.68 in 10.0 mi West 6.9 mph - N/A   Clear
3:52 PM 77.0 °F 42.8 °F 29% 29.68 in 10.0 mi WNW 8.1 mph - N/A   Clear
4:13 PM 78.8 °F 44.6 °F 30% 29.68 in 10.0 mi NW 8.1 mph - N/A   Clear
4:32 PM 78.8 °F 44.6 °F 30% 29.68 in 10.0 mi North 10.4 mph - N/A   Clear
4:53 PM 78.8 °F 44.6 °F 30% 29.68 in 10.0 mi NNW 11.5 mph 17.3 mph N/A   Clear
5:13 PM 78.8 °F 42.8 °F 28% 29.68 in 10.0 mi NNW 12.7 mph 19.6 mph N/A   Clear
5:32 PM 75.2 °F 42.8 °F 31% 29.68 in 10.0 mi NNW 17.3 mph 23.0 mph N/A   Clear
5:53 PM 75.2 °F 39.2 °F 27% 29.69 in 10.0 mi NNW 19.6 mph 24.2 mph N/A   Clear
6:13 PM 73.4 °F 42.8 °F 33% 29.70 in 10.0 mi NW 17.3 mph 28.8 mph N/A   Clear
6:32 PM 71.6 °F 42.8 °F 35% 29.71 in 10.0 mi NNW 21.9 mph 28.8 mph N/A   Clear
6:53 PM 71.6 °F 42.8 °F 35% 29.71 in 10.0 mi North 16.1 mph 24.2 mph N/A   Clear
7:13 PM 69.8 °F 42.8 °F 38% 29.72 in 10.0 mi North 13.8 mph - N/A Thunderstorm Clear
7:32 PM 68.0 °F 42.8 °F 40% 29.72 in 10.0 mi North 10.4 mph - N/A   Clear
7:53 PM 66.2 °F 42.8 °F 43% 29.71 in 10.0 mi North 9.2 mph - N/A   Scattered Clouds
8:12 PM 66.2 °F 44.6 °F 46% 29.74 in 10.0 mi NNW 6.9 mph - N/A   Mostly Cloudy
8:33 PM 62.6 °F 46.4 °F 55% 29.74 in 10.0 mi Calm Calm - N/A   Scattered Clouds
8:53 PM 60.8 °F 46.4 °F 59% 29.75 in 10.0 mi South 5.8 mph - N/A   Unknown
9:12 PM 60.8 °F 44.6 °F 55% 29.76 in 10.0 mi South 3.5 mph - N/A Thunderstorm Unknown
9:33 PM 57.2 °F 48.2 °F 72% 29.76 in 10.0 mi West 3.5 mph - N/A   Unknown
9:53 PM 57.2 °F 48.2 °F 72% 29.77 in 10.0 mi WNW 13.8 mph - N/A   Unknown
10:12 PM 57.2 °F 46.4 °F 67% 29.78 in 10.0 mi NW 6.9 mph - N/A   Unknown
10:33 PM 57.2 °F 48.2 °F 72% 29.79 in 10.0 mi NW 9.2 mph - N/A   Clear
10:53 PM 57.2 °F 48.2 °F 72% 29.79 in 10.0 mi NNW 9.2 mph - N/A   Clear
11:12 PM 57.2 °F 48.2 °F 72% 29.79 in 10.0 mi NNW 8.1 mph - N/A   Scattered Clouds
11:33 PM 55.4 °F 48.2 °F 77% 29.79 in 10.0 mi NNW 8.1 mph - N/A   Scattered Clouds
11:53 PM 53.6 °F 48.2 °F 82% 29.79 in 10.0 mi NNW 9.2 mph - N/A   Clear